User: anonymous   Login
Location: Lane
(33.5226°N, 79.8788°W)
Time: 11:57:25
(UTC+00:00)
Language:

deb Explorer IX - Orbit

View from above orbital plane
View from above orbital plane
View from above satellite
View from above satellite

Ground track
Ground track

The orbit data is extracted from the following two-line orbital elements,

1 00085U 61004C   22277.39717629  .00013805  00000-0  26132-2 0  9991
2 00085  38.7684  44.5333 0370956 352.1306   7.3732 14.28160602 50651
Epoch (UTC): 04 October 2022 09:31:56
Eccentricity: 0.0370956
inclination: 38.7684°
perigee height: 531 km
apogee height: 1064 km
right ascension of ascending node: 44.5333°
argument of perigee: 352.1306°
revolutions per day: 14.28160602
mean anomaly at epoch: 7.3732°
orbit number at epoch: 5065

The dashed part of the orbit path shows where the satellite is in the earth's shadow,  

DLR